CAPE
277 144 366 371 314 590 663 666 570 353 336 242 124 72 58 3 5 12 3 6 10 8 4 5 6 7 1 8 8 2 0 1 6 1 9 6 15 36 14 9 1 7 37
234 275 388 207 191 354 343 347 324 218 220 138 63 39 14 20 6 7 5 4 5 7 8 5 6 9 8 7 0 0 0 0 2 4 0 0 6 6 8 11 9 6 9
283 307 198 90 93 133 25 19 62 200 243 142 214 66 26 23 15 5 15 7 10 10 7 6 6 8 6 1 0 0 0 0 0 5 0 0 2 5 6 6 4 4 4
173 244 134 32 51 12 0 1 33 134 99 26 65 38 30 28 13 10 9 11 2 6 7 5 6 8 3 0 0 0 0 0 0 0 0 0 1 4 4 1 1 1 1
169 158 50 30 10 5 0 0 5 29 7 17 40 19 14 9 12 9 6 7 2 9 6 4 1 2 0 0 0 0 0 0 0 0 0 0 0 3 2 2 0 0 1
110 68 29 31 42 1 0 2 31 18 15 24 23 14 14 0 0 0 4 4 6 2 7 3 0 0 0 0 0 0 0 0 0 0 0 0 1 6 6 2 0 0 0
50 17 7 23 56 24 0 4 19 54 27 26 31 14 1 1 0 3 3 6 2 5 3 1 0 0 0 0 0 0 0 0 0 0 0 0 4 5 12 6 1 1 1
29 0 0 18 65 30 0 0 2 25 30 20 8 0 0 4 4 4 3 4 4 4 2 0 0 0 0 0 0 0 0 0 0 0 0 0 17 38 28 17 14 11 9
20 0 0 0 4 16 0 0 0 9 35 26 8 0 4 3 3 1 2 3 3 1 0 0 0 0 0 0 0 0 0 0 0 0 0 0 2 43 44 33 41 46 49
14 7 0 0 0 0 0 0 0 0 17 10 0 0 0 0 0 0 0 0 0 0 0 0 0 0 0 0 0 0 0 0 0 0 0 0 1 24 32 15 35 42 45
18 13 2 0 0 0 0 0 0 0 0 0 0 0 0 0 0 0 0 0 0 0 0 0 0 0 0 0 0 0 0 0 0 0 0 0 0 5 28 23 32 26 17
11 19 24 9 0 0 0 0 0 0 0 0 0 0 4 0 0 0 0 0 0 0 0 0 0 0 0 0 0 0 0 1 5 0 0 0 0 6 14 31 17 5 7
0 2 10 18 5 0 0 0 0 0 0 0 0 2 0 0 0 0 0 0 0 0 0 0 0 0 0 0 0 0 0 0 6 0 0 0 1 18 26 8 2 4 7
0 0 0 32 5 0 0 0 0 0 0 0 0 0 0 0 0 0 0 0 0 0 0 0 0 0 0 0 0 1 9 13 12 0 0 0 3 0 0 0 0 1 1
0 0 0 2 6 0 2 0 0 0 0 0 0 0 0 0 0 0 0 0 0 0 0 3 3 5 2 0 0 2 11 11 5 0 0 0 0 0 0 0 0 0 3
0 0 0 2 9 2 0 0 0 0 0 0 0 0 0 0 0 0 0 0 0 0 0 0 0 0 0 8 12 20 15 6 0 0 0 0 0 0 0 0 0 2 4
0 0 0 0 7 7 0 0 0 0 0 0 0 0 0 0 0 0 0 0 1 0 0 0 2 3 2 1 6 6 8 3 0 0 0 0 0 0 0 0 1 0 0
0 0 0 0 0 3 0 0 0 0 0 0 0 0 0 0 0 0 0 2 7 0 2 10 8 2 2 1 4 0 2 1 0 0 0 0 0 0 0 0 0 0 0
0 0 0 0 0 0 1 0 0 0 0 0 0 0 0 0 0 0 0 4 8 5 4 6 1 9 2 2 2 0 1 0 0 0 0 0 0 0 0 0 0 0 0
0 0 0 0 0 0 0 0 0 0 0 0 0 0 0 0 0 0 0 0 0 0 0 2 7 5 4 6 0 1 0 0 0 0 0 0 0 0 0 0 0 0 0
0 0 0 0 0 0 0 0 0 0 0 0 0 0 0 0 0 0 0 0 0 0 0 2 19 12 5 2 0 0 0 0 0 0 0 0 0 0 0 0 0 0 0
0 0 0 0 0 0 0 0 0 0 0 0 0 0 0 0 0 0 0 0 3 0 9 15 21 7 3 0 0 0 0 0 0 0 0 0 0 0 0 0 0 0 0
0 0 0 0 0 0 0 0 0 0 0 0 0 0 0 0 0 0 0 1 16 8 12 17 21 15 6 0 0 0 0 0 0 0 0 0 0 0 0 0 0 0 0
16 13 0 0 0 0 0 0 0 0 0 0 0 0 0 0 0 0 0 2 10 19 25 25 23 23 6 1 0 0 0 0 0 0 0 0 0 0 0 0 0 0 0
17 36 37 8 0 0 0 0 0 0 0 0 0 0 0 0 0 0 1 7 12 18 23 25 17 6 5 1 0 0 0 0 0 0 0 0 0 0 0 0 0 0 0
2 28 31 47 27 0 0 0 0 0 0 0 0 0 0 0 0 0 0 11 26 13 19 7 4 0 0 0 0 0 0 0 0 0 0 0 0 0 0 0 0 0 0
CIN
-28 -98 -24 -15 -27 -0 -0 -0 -3 -4 -2 -5 -18 -60 -72 -25 -3 -2 -3 -0 -0 -1 -0 -0 -0 -0 -0 -0 -0 -0 -0 -0 -2 -1 -1 -0 -0 -0 -1 -0 -1 -1 -0
-62 -71 -28 -64 -67 -19 -9 -11 -15 -29 -8 -18 -39 -58 -104 -152 -4 -3 -0 -0 -0 -0 -1 -0 -0 -0 -0 -0 -0 -0 -0 -0 -8 -4 -0 -0 -0 -0 -0 -1 -0 -0 -0
-29 -26 -59 -111 -102 -63 -108 -140 -97 -29 -11 -17 -3 -63 -4 -3 -4 -1 -1 -0 -0 -0 -1 -0 -1 -0 -0 -0 -0 -0 -0 -0 -2 -6 -0 -0 -1 -1 -0 -0 -1 -0 -0
-40 -33 -74 -144 -111 -141 -0 -51 -88 -60 -70 -91 -60 -143 -3 -4 -1 -0 -2 -3 -0 -0 -0 -0 -1 -1 -0 -0 -0 -0 -0 -0 -0 -0 -0 -0 -0 -1 -0 -0 -0 -0 -0
-12 -56 -136 -140 -151 -169 -0 -1 -5 -92 -5 -3 -79 -2 -1 -2 -1 -0 -0 -0 -0 -1 -0 -0 -0 -0 -0 -0 -0 -0 -0 -0 -0 -0 -0 -0 -0 -1 -0 -0 -0 -0 -0
-26 -89 -137 -118 -69 -21 -0 -96 -143 -115 -3 -4 -2 -3 -0 -0 -0 -0 -0 -0 -0 -1 -0 -0 -0 -0 -0 -0 -0 -0 -0 -0 -0 -0 -0 -0 -2 -0 -0 -0 -0 -0 -0
-80 -126 -167 -124 -57 -75 -0 -6 -8 -69 -2 -6 -7 -1 -0 -0 -0 -0 -0 -0 -0 -0 -0 -0 -0 -0 -0 -0 -0 -0 -0 -0 -0 -0 -0 -1 -1 -0 -0 -0 -0 -0 -0
-101 -0 -0 -100 -35 -47 -0 -0 -3 -5 -6 -13 -7 -0 -0 -0 -0 -0 -0 -0 -0 -0 -0 -0 -0 -0 -0 -0 -0 -0 -0 -0 -0 -0 -0 -0 -7 -2 -1 -1 -0 -0 -1
-63 -0 -0 -0 -17 -61 -0 -0 -0 -15 -4 -19 -16 -0 -2 -1 -1 -1 -1 -0 -0 -0 -0 -0 -0 -0 -0 -0 -0 -0 -0 -0 -0 -0 -0 -0 -1 -3 -1 -0 -0 -0 -0
-20 -18 -0 -0 -0 -0 -0 -0 -0 -0 -7 -23 -0 -0 -0 -0 -0 -0 -0 -0 -0 -0 -0 -0 -0 -0 -0 -0 -0 -0 -0 -0 -0 -0 -0 -0 -0 -1 -0 -0 -0 -0 -0
-22 -7 -3 -0 -0 -0 -0 -0 -0 -0 -0 -0 -0 -0 -0 -0 -0 -0 -0 -0 -0 -0 -0 -0 -0 -0 -0 -0 -0 -0 -0 -0 -0 -0 -0 -0 -0 -1 -1 -0 -0 -0 -0
-4 -17 -4 -12 -0 -0 -0 -0 -0 -0 -0 -0 -0 -0 -6 -0 -0 -0 -0 -0 -0 -0 -0 -0 -0 -0 -0 -0 -0 -0 -0 -3 -4 -0 -0 -0 -0 -0 -0 -0 -0 -0 -0
-0 -2 -8 -12 -3 -0 -0 -0 -0 -0 -0 -0 -0 -2 -0 -0 -0 -0 -0 -0 -0 -0 -0 -0 -0 -0 -0 -0 -0 -0 -0 -1 -4 -0 -0 -0 -0 -0 -0 -0 -0 -0 -0
-0 -0 -0 -7 -6 -0 -0 -0 -0 -0 -0 -0 -0 -0 -0 -0 -0 -0 -0 -0 -0 -0 -0 -2 -0 -0 -0 -0 -0 -2 -2 -2 -2 -0 -0 -0 -0 -0 -0 -0 -0 -0 -1
-0 -0 -0 -5 -10 -0 -2 -0 -0 -0 -0 -0 -0 -0 -0 -0 -0 -0 -0 -0 -0 -0 -0 -2 -2 -2 -1 -0 -0 -2 -3 -2 -4 -0 -0 -0 -0 -0 -0 -0 -0 -0 -0
-0 -0 -0 -14 -16 -1 -0 -0 -0 -0 -0 -0 -0 -0 -0 -0 -0 -0 -0 -0 -0 -0 -1 -0 -0 -0 -0 -4 -5 -2 -6 -4 -0 -0 -0 -0 -0 -0 -0 -0 -0 -0 -0
-0 -0 -0 -0 -25 -13 -0 -0 -0 -0 -0 -0 -0 -0 -0 -0 -0 -0 -0 -0 -3 -0 -0 -0 -10 -5 -6 -4 -2 -4 -3 -8 -0 -0 -0 -0 -0 -0 -0 -0 -0 -0 -0
-0 -0 -0 -0 -0 -10 -0 -0 -0 -0 -0 -0 -0 -0 -0 -0 -0 -0 -0 -1 -5 -0 -2 -3 -9 -10 -3 -2 -3 -0 -3 -12 -0 -0 -0 -0 -0 -0 -0 -0 -0 -0 -0
-0 -0 -0 -0 -0 -0 -2 -0 -0 -0 -0 -0 -0 -0 -0 -0 -0 -0 -0 -5 -8 -9 -11 -13 -11 -14 -3 -4 -6 -1 -14 -0 -0 -0 -0 -0 -0 -0 -0 -0 -0 -0 -0
-0 -0 -0 -0 -0 -0 -0 -0 -0 -0 -0 -0 -0 -0 -0 -0 -0 -0 -0 -0 -0 -0 -0 -22 -13 -11 -7 -10 -0 -8 -0 -0 -0 -0 -0 -0 -0 -0 -0 -0 -0 -0 -0
-0 -0 -0 -0 -0 -0 -0 -0 -0 -0 -0 -0 -0 -0 -0 -0 -0 -0 -0 -0 -0 -0 -0 -18 -20 -9 -5 -17 -0 -0 -0 -0 -0 -0 -0 -0 -0 -0 -0 -0 -0 -0 -0
-0 -0 -0 -0 -0 -0 -0 -0 -0 -0 -0 -0 -0 -0 -0 -0 -0 -0 -0 -0 -35 -0 -36 -33 -28 -19 -12 -0 -0 -0 -0 -0 -0 -0 -0 -0 -0 -0 -0 -0 -0 -0 -0
-0 -0 -0 -0 -0 -0 -0 -0 -0 -0 -0 -0 -0 -0 -0 -0 -0 -0 -0 -36 -40 -41 -35 -30 -30 -22 -12 -0 -0 -0 -0 -0 -0 -0 -0 -0 -0 -0 -0 -0 -0 -0 -0
-376 -317 -0 -0 -0 -0 -0 -0 -0 -0 -0 -0 -0 -0 -0 -0 -0 -0 -0 -46 -38 -30 -33 -37 -37 -30 -20 -23 -0 -0 -0 -0 -0 -0 -0 -0 -0 -0 -0 -0 -0 -0 -0
-361 -358 -327 -240 -0 -0 -0 -0 -0 -0 -0 -0 -0 -0 -0 -0 -0 -0 -17 -48 -49 -46 -46 -50 -49 -49 -39 -25 -0 -0 -0 -0 -0 -0 -0 -0 -0 -0 -0 -0 -0 -0 -0
-114 -313 -314 -306 -319 -0 -0 -0 -0 -0 -0 -0 -0 -0 -0 -0 -0 -0 -0 -59 -64 -62 -71 -78 -74 -0 -0 -0 -0 -0 -0 -0 -0 -0 -0 -0 -0 -0 -0 -0 -0 -0 -0
Wind_Speed
15 12 9 11 12 12 13 13 13 13 13 13 16 18 18 18 19 20 22 22 23 21 20 21 22 22 25 26 27 28 29 30 32 32 31 32 32 32 33 33 33 33 33
15 11 12 12 10 11 12 12 13 11 11 13 16 17 16 17 19 20 21 21 21 21 21 21 21 23 25 26 26 27 27 20 27 32 33 32 32 32 32 32 32 32 32
16 15 12 10 10 11 7 6 5 5 10 13 14 15 17 20 21 21 20 21 21 21 20 19 21 23 25 24 24 26 13 3 3 27 31 32 32 32 32 32 32 32 32
18 17 12 12 11 7 5 5 5 10 12 11 10 13 17 19 22 21 18 19 20 19 18 18 20 23 23 24 26 29 10 0 26 27 30 31 31 32 32 32 32 32 32
15 12 13 13 9 5 5 5 8 10 12 12 13 14 17 19 20 19 18 17 15 17 17 20 21 22 24 24 26 27 1 4 29 30 30 30 30 31 31 32 31 31 31
15 11 8 4 4 4 5 9 9 10 13 13 15 16 17 19 19 17 16 12 14 17 19 21 23 24 24 24 26 26 8 26 29 29 30 30 30 30 31 31 30 30 30
12 9 3 10 11 5 6 7 6 9 14 14 15 16 17 17 16 16 13 13 18 19 19 20 22 23 24 25 26 23 16 26 28 28 29 29 29 30 30 30 30 29 29
10 7 3 7 7 4 6 7 7 9 14 16 15 16 17 16 15 12 11 14 18 19 19 20 22 23 24 25 25 25 25 25 26 27 28 28 28 28 28 28 29 28 28
3 7 4 4 5 6 5 7 7 8 12 14 16 15 14 13 11 9 10 13 16 18 19 18 20 21 23 23 24 25 24 25 24 26 28 28 27 29 29 30 30 31 32
5 3 6 4 4 5 5 6 6 7 11 12 14 14 13 12 11 10 10 12 15 17 18 18 19 21 22 23 24 24 23 18 24 24 28 27 28 29 30 31 32 33 33
3 1 5 8 7 6 5 5 6 7 9 10 12 14 14 12 10 10 11 13 15 17 17 18 19 20 20 21 23 24 25 23 23 23 26 28 29 29 30 30 31 32 34
1 5 4 10 8 7 5 4 5 6 8 8 9 11 10 9 10 10 11 13 15 16 17 18 19 19 16 16 21 23 23 23 24 23 26 28 28 29 29 30 32 33 33
3 2 5 3 2 7 6 5 4 6 8 8 8 9 8 9 9 11 13 14 15 15 16 16 18 19 21 22 23 23 24 24 24 23 25 27 28 28 29 31 32 32 33
6 1 2 1 4 4 6 7 6 4 4 6 7 9 8 9 10 10 12 13 13 15 15 17 17 18 20 20 21 23 23 23 23 21 24 26 26 28 29 30 31 32 33
5 3 2 1 6 6 3 4 8 6 4 4 5 8 8 9 10 11 11 12 13 14 15 16 17 18 19 20 20 20 22 23 22 21 22 24 26 28 29 31 31 32 33
5 5 5 2 6 5 6 5 5 4 5 5 4 5 8 8 8 10 10 11 12 14 15 16 17 19 19 18 20 19 21 21 22 21 20 23 25 27 29 30 31 32 33
8 6 8 5 4 2 6 5 5 3 2 2 3 4 4 7 8 9 10 11 12 13 14 14 16 18 20 21 21 20 20 19 20 21 19 21 24 27 29 30 31 32 33
6 9 10 7 5 2 5 5 5 3 2 2 5 6 7 9 9 10 10 11 11 12 12 14 17 18 20 19 19 21 19 18 18 19 20 22 24 24 27 28 29 31 34
7 9 9 10 12 9 5 5 6 4 3 1 2 5 6 11 12 11 12 12 11 13 14 15 17 17 19 20 21 19 17 16 16 18 20 22 24 25 25 27 29 31 33
7 10 9 9 9 12 5 4 4 3 3 2 2 2 2 7 10 11 11 11 11 12 13 14 15 16 17 18 19 17 17 15 15 17 20 21 23 24 25 27 28 30 32
7 10 11 10 10 11 8 6 6 6 5 5 4 3 4 5 7 9 10 9 10 10 11 12 15 16 17 17 18 16 15 14 15 17 19 20 22 23 24 25 28 29 30
10 11 11 12 11 11 8 8 9 8 8 8 10 9 9 9 9 9 9 10 10 11 11 12 13 15 17 16 16 15 14 14 15 15 17 19 20 21 23 25 28 29 29
13 13 13 13 12 12 10 9 9 9 10 10 12 12 11 10 10 10 10 11 11 12 12 12 13 13 16 15 14 14 15 16 13 14 17 19 19 20 21 24 27 28 28
14 13 14 13 13 13 12 11 12 12 12 13 12 12 11 11 11 11 11 11 11 12 13 13 12 14 15 15 14 13 14 14 16 18 17 19 18 19 20 23 25 27 27
14 16 15 15 15 14 15 14 14 14 15 15 15 14 14 14 13 13 12 12 12 13 14 14 15 15 14 15 13 13 13 15 15 18 20 18 19 18 19 21 24 26 27
15 16 17 17 17 17 17 17 17 17 17 17 17 17 16 17 16 15 15 14 14 14 14 14 14 15 15 15 13 12 12 15 15 16 19 19 19 19 18 20 23 25 26
Wind_Direction
70 59 33 16 11 11 21 26 26 31 31 27 35 39 35 28 29 33 35 35 36 28 24 25 27 28 34 35 39 42 45 48 54 50 38 40 47 33 45 42 43 41 32
78 55 49 21 3 11 17 19 27 25 26 33 38 39 27 28 33 33 36 35 31 29 28 27 26 31 34 36 36 41 39 107 91 60 50 43 45 40 37 33 38 34 34
80 75 42 21 12 17 328 282 318 336 27 34 35 38 37 42 42 39 34 34 31 31 27 20 25 31 34 34 35 40 10 1 126 81 56 51 46 46 41 42 38 40 38
88 80 53 38 26 353 315 268 346 27 37 32 25 31 38 40 47 41 28 30 32 26 21 18 23 31 31 34 41 53 55 346 24 29 44 45 45 41 39 40 40 40 38
80 63 63 47 28 346 341 343 20 31 39 36 37 34 41 39 39 37 30 24 17 23 19 24 26 32 33 34 45 44 245 149 49 47 41 40 47 40 40 40 42 40 38
77 59 46 336 328 319 328 23 24 35 47 39 43 42 42 43 40 31 24 6 14 23 26 28 33 37 36 35 44 37 330 39 47 42 44 42 44 41 39 40 40 38 36
72 59 315 231 227 279 345 9 345 18 51 46 44 44 39 39 35 30 13 9 29 30 27 27 33 35 37 39 41 25 354 39 48 44 38 41 48 40 38 38 37 36 34
79 59 341 250 261 332 9 8 360 15 57 56 46 47 48 40 34 16 5 15 32 33 28 30 33 38 38 38 38 35 25 21 30 43 41 39 39 37 37 36 33 33 30
60 70 23 324 344 357 358 10 12 15 45 49 51 45 37 26 15 355 354 9 23 33 29 22 26 31 34 32 33 34 14 30 50 42 39 37 41 31 27 23 22 21 19
84 62 73 27 3 351 343 9 10 20 47 47 46 45 37 25 9 354 350 2 19 27 26 24 24 30 34 33 36 40 47 72 44 42 32 33 29 21 19 18 16 16 18
94 72 85 86 67 29 354 9 14 33 45 45 47 59 53 37 359 327 354 4 24 27 24 22 32 44 48 47 33 21 14 37 36 37 27 24 22 20 19 21 20 19 17
114 110 93 104 87 68 8 0 19 42 59 50 46 51 301 348 354 346 358 12 23 27 27 27 31 29 64 63 30 22 24 27 25 32 23 18 21 23 23 20 17 14 15
129 295 100 79 319 74 66 61 31 65 74 64 63 323 338 334 351 6 17 38 44 60 54 49 33 18 8 2 1 9 9 6 9 25 19 17 19 19 19 15 13 14 14
160 199 114 2 323 358 85 90 88 41 10 322 330 315 325 341 333 11 31 43 57 45 38 23 22 17 9 12 12 7 6 8 10 24 18 17 18 16 15 15 15 14 14
175 191 205 22 106 92 59 82 104 90 48 32 343 321 346 337 334 347 12 37 32 32 25 22 15 14 13 11 14 15 6 4 9 21 19 20 19 17 14 14 14 15 16
171 179 165 164 128 97 103 97 97 83 88 72 55 12 342 349 2 4 13 14 23 15 13 7 7 4 6 13 11 11 10 11 11 14 22 22 20 18 15 15 16 16 14
152 163 170 168 146 38 121 109 104 88 352 39 48 60 21 348 351 351 360 3 6 7 7 12 8 4 359 357 2 7 9 16 15 15 26 24 20 19 16 15 16 15 14
150 157 162 180 173 161 138 131 129 108 59 356 326 326 321 318 330 332 345 351 359 3 9 6 0 359 359 1 2 358 4 17 20 22 19 18 17 19 18 18 17 15 13
162 163 167 171 173 169 157 150 149 146 152 150 324 321 317 311 315 327 332 344 355 356 357 356 354 356 356 354 355 1 12 17 24 23 22 18 17 16 19 19 17 14 13
177 169 171 176 179 176 183 179 187 221 231 243 258 285 301 313 316 322 330 336 339 345 347 349 351 353 355 356 355 3 10 19 25 24 17 19 18 17 15 13 11 11 12
198 185 183 182 184 184 203 222 244 248 250 264 253 238 284 301 308 313 320 328 336 337 342 346 347 348 351 352 352 1 9 16 16 15 13 14 15 15 15 14 12 12 13
211 199 197 196 198 198 215 238 260 259 264 270 285 284 286 292 296 300 307 315 324 328 331 337 340 343 346 348 345 347 345 352 360 6 8 10 11 13 13 12 10 11 13
213 210 210 208 211 209 220 241 261 266 275 274 280 283 282 286 289 294 299 305 311 318 320 325 329 334 335 341 344 340 338 334 348 356 359 3 7 9 11 9 8 10 12
226 233 222 223 220 221 221 234 236 245 256 270 273 276 271 270 280 284 288 294 299 306 311 315 320 326 330 327 332 335 335 340 336 338 348 354 1 3 5 5 6 7 10
236 227 231 233 233 233 230 237 246 255 267 274 278 277 274 276 273 279 283 284 291 299 305 309 312 316 321 322 319 324 328 331 333 335 335 343 354 359 2 2 3 4 7
244 242 244 240 240 240 240 242 250 256 265 272 271 272 273 276 275 277 283 284 288 294 298 304 309 311 313 315 310 311 315 323 325 331 334 337 340 347 356 359 360 2 4